Torna al catalogo

ARIANE 5 DEB

SYLDA

AttivoGTO
NORAD 27717·DEBRIS·🇫🇷 France

Lanciato Apr 9, 2003 da Guiana Space Centre

Loading…

TLE

In scadenzaSource: Space-Track

Epoca: Sep 14, 2026, 13:18 UTC

1 27717U 03013D   26257.55460413  .00000094  00000-0  82541-2 0  9996
2 27717   1.1565 221.7399 7088078  51.5120 163.6931  2.22484923190510

Traccia ARIANE 5 DEB in tempo reale con AllMySat

Download on the App Store